"Pseudo-MPEC" for P11JzPv

Created 2023 Oct 5 17:22:15 UT using Find_Orb

Click here for an explanation of pseudo-MPECs

 
 Astrometry: 
     P11JzPv* C2023 09 15I`FTpD*=^a\a^FHr)%k'o^6Znc1CfqAstrometryD@BhJ_LeWbM;F51
     P11JzPv  C2023 09 15.u4k!YrqxBV4$Q3r_F8'4=f`(CH/90_'U:`'18IA'K2_*DHwK\:kF51
     P11JzPv  C2023 09 15vvhx,'bE.=_IDJ;Hlvsl/2redacted;H9Vp6click[,*('oZgPB2F51
     P11JzPv  C2023 09 159_q]AW+gTY3=k[VHQG]]Qd?23yycA1Z\r$PWE^6Y!(nW*FXA]d_WF51
     P11JzPv  C2023 09 15vrVP\Ra8fx1^apGE,ZhO1LOjnf.-C^T4bhere,PTrNe1*'+%3f%VF51
     P11JzPv  C2023 09 15o7\D[*di8.MbZHl4ttT+$Z2c`O?0xVlvkwaZ5Ib-fore$g3JU-x/F51
     P11JzPv  C2023 09 15mVj%?*YIIiGZ6DK3+`THc?P,*_m(o`89fWCyZFi(Z%L`l1FH?H1^F51
     P11JzPv  C2023 09 15N;Dexplanation27nIx,b=_qx`:@?,Ze=g6NRNVmrBH/6Kav4Y:MF51

Station data:
(F51) Pan-STARRS 1, Haleakala  (N20.707234 W156.255910)  US/Hawaii.
   Observers J. Bulger, T. Lowe, A. Schultz, M. Willman. Measurers K.
   Chambers, S. Chastel, T. de Boer, L. Denneau, J. Fairlamb, H. Flewelling,
   M. Huber, C.-C. Lin, E. Magnier, Y. Ramanjooloo, R. Wainscoat, R. Weryk.
   1.8-m Ritchey-Chrétien + CCD.

Orbital elements:  P11JzPv
   Perihelion 2022 Sep 26.30876 +/- 154 TT =  7:24:36 (JD 2459848.80876)
Epoch 2023 Sep 15.0 TT = JDT 2460202.5   Earth MOID: 0.8764      AutoNEOCP
M 124.33148947 +/- 60               (J2000 ecliptic)
n   0.35152549 +/- 0.23             Peri.  194.23279 +/- 100
a   1.98837440 +/- 0.866            Node    19.18830 +/- 37
e   0.0565264 +/- 0.27              Incl.   31.83950 +/- 21
P   2.80                   H 19.18  G  0.15   U 11.8  SR
q 1.87597872 +/- 0.703    Q 2.10077007 +/- 11.3
From 8 observations 2023 Sept. 15 (1.9 hr); mean residual 0".09
Residuals in arcseconds: 
230915 F51  .09+  .08-    230915 F51  .14+  .06+    230915 F51  .01-  .04+    
230915 F51  .04-  .06+    230915 F51  .09-  .08+    230915 F51  .15+  .07-    
230915 F51  .18-  .01-    230915 F51  .06-  .07-    

Ephemerides (geocentric):
Date (UTC) HH   RA             Dec           delta  r     elong  mag " sig PA
---- --------  ------------   ------------  ------ ------ -----  --- --------
2023 10 05 17  23 18 43.392   -33 05 45.65  1.2178 2.0664 137.2 22.2 7254  48
2023 10 05 18  23 18 39.513   -33 05 01.17  1.2180 2.0664 137.2 22.2 7288  48
2023 10 05 19  23 18 35.639   -33 04 16.67  1.2182 2.0664 137.1 22.2 7322  48
2023 10 05 20  23 18 31.769   -33 03 32.13  1.2185 2.0664 137.1 22.2 7356  48
2023 10 05 21  23 18 27.904   -33 02 47.56  1.2187 2.0664 137.1 22.2 7391  48
2023 10 05 22  23 18 24.044   -33 02 02.95  1.2190 2.0665 137.0 22.2 7425  48
2023 10 05 23  23 18 20.189   -33 01 18.31  1.2192 2.0665 137.0 22.2 7460  48
2023 10 06 00  23 18 16.339   -33 00 33.63  1.2195 2.0665 137.0 22.2 7495  48
2023 10 06 01  23 18 12.493   -32 59 48.92  1.2197 2.0665 137.0 22.2 7529  48
2023 10 06 02  23 18 08.652   -32 59 04.18  1.2199 2.0665 136.9 22.2 7564  48
2023 10 06 03  23 18 04.817   -32 58 19.40  1.2202 2.0666 136.9 22.2 7600  48
2023 10 06 04  23 18 00.985   -32 57 34.59  1.2204 2.0666 136.9 22.2 7635  48
2023 10 06 05  23 17 57.159   -32 56 49.75  1.2207 2.0666 136.9 22.2 7670  47
2023 10 06 06  23 17 53.338   -32 56 04.87  1.2209 2.0666 136.8 22.2 7706  47
2023 10 06 07  23 17 49.521   -32 55 19.96  1.2212 2.0666 136.8 22.2 7741  47
2023 10 06 08  23 17 45.710   -32 54 35.02  1.2214 2.0667 136.8 22.2 7777  47
2023 10 06 09  23 17 41.903   -32 53 50.04  1.2216 2.0667 136.7 22.2 7813  47
2023 10 06 10  23 17 38.101   -32 53 05.03  1.2219 2.0667 136.7 22.2 7849  47
2023 10 06 11  23 17 34.304   -32 52 19.99  1.2221 2.0667 136.7 22.2 7885  47
2023 10 06 12  23 17 30.512   -32 51 34.91  1.2224 2.0667 136.7 22.2 7921  47
2023 10 06 13  23 17 26.725   -32 50 49.80  1.2226 2.0668 136.6 22.2 7957  47
2023 10 06 14  23 17 22.942   -32 50 04.66  1.2229 2.0668 136.6 22.2 7994  47
2023 10 06 15  23 17 19.165   -32 49 19.49  1.2231 2.0668 136.6 22.2 8030  47
2023 10 06 16  23 17 15.392   -32 48 34.28  1.2234 2.0668 136.5 22.2 8067  47
2023 10 06 17  23 17 11.624   -32 47 49.04  1.2236 2.0668 136.5 22.2 8104  47
2023 10 06 18  23 17 07.861   -32 47 03.76  1.2239 2.0669 136.5 22.2 8141  47
2023 10 06 19  23 17 04.103   -32 46 18.46  1.2241 2.0669 136.5 22.2 8178  47
2023 10 06 20  23 17 00.350   -32 45 33.12  1.2244 2.0669 136.4 22.2 8215  46
2023 10 06 21  23 16 56.602   -32 44 47.75  1.2246 2.0669 136.4 22.2 8252  46
2023 10 06 22  23 16 52.859   -32 44 02.35  1.2249 2.0669 136.4 22.2 8290  46
2023 10 06 23  23 16 49.120   -32 43 16.92  1.2251 2.0670 136.3 22.2 8327  46
2023 10 07 00  23 16 45.387   -32 42 31.45  1.2254 2.0670 136.3 22.2 8365  46
2023 10 07 01  23 16 41.659   -32 41 45.95  1.2256 2.0670 136.3 22.2 8403  46
2023 10 07 02  23 16 37.935   -32 41 00.42  1.2259 2.0670 136.2 22.2 8441  46
2023 10 07 03  23 16 34.216   -32 40 14.86  1.2261 2.0670 136.2 22.2 8479  46
2023 10 07 04  23 16 30.502   -32 39 29.26  1.2264 2.0671 136.2 22.2 8517  46
2023 10 07 05  23 16 26.794   -32 38 43.64  1.2266 2.0671 136.2 22.2 8555  46
2023 10 07 06  23 16 23.090   -32 37 57.98  1.2269 2.0671 136.1 22.2 8594  46
2023 10 07 07  23 16 19.391   -32 37 12.29  1.2271 2.0671 136.1 22.2 8632  46
2023 10 07 08  23 16 15.697   -32 36 26.57  1.2274 2.0671 136.1 22.2 8671  46
2023 10 07 09  23 16 12.008   -32 35 40.81  1.2277 2.0672 136.0 22.2 8710  46
2023 10 07 10  23 16 08.324   -32 34 55.03  1.2279 2.0672 136.0 22.2 8749  46
2023 10 07 11  23 16 04.644   -32 34 09.22  1.2282 2.0672 136.0 22.2 8788  46
2023 10 07 12  23 16 00.970   -32 33 23.37  1.2284 2.0672 136.0 22.2 8827  45
2023 10 07 13  23 15 57.301   -32 32 37.49  1.2287 2.0672 135.9 22.2 8867  45
2023 10 07 14  23 15 53.637   -32 31 51.58  1.2289 2.0673 135.9 22.2 8906  45
2023 10 07 15  23 15 49.977   -32 31 05.64  1.2292 2.0673 135.9 22.2 8946  45
2023 10 07 16  23 15 46.323   -32 30 19.67  1.2294 2.0673 135.8 22.2 8985  45